Back to catalog

THOR BURNER 2A R/B

AliveSSO
NORAD 7412·ROCKET BODY·🇺🇸 United States

Launched Aug 9, 1974 from Vandenberg Space Force Base

Loading…

Next Passes (next 24 hours)

TLE

FreshSource: Space-Track

Epoch: Sep 14, 2026, 13:27 UTC

1 07412U 74063B   26257.56058702  .00000050  00000-0  40158-4 0  9996
2 07412  98.5825  96.2743 0046006  69.9024 290.7098 14.23771177701799

Track THOR BURNER 2A R/B in real time with AllMySat

Download on the App Store